Nadi, Fiji

2:53 PM FJT on February 22, 2017 (GMT +1200)
Nadi International

Weather History for NFFN - November, 2012

Change the Weather History Date:

Sunday, November 4, 2012

  Actual Average Record
Temperature  
Mean Temperature 80 °F -  
Max Temperature 86 °F 84 °F 89 °F (1998)
Min Temperature 73 °F 70 °F 69 °F (2003)
Cooling Degree Days 14    
Growing Degree Days 30 (Base 50)    
Moisture  
Dew Point 73 °F    
Average Humidity 79    
Maximum Humidity 96    
Minimum Humidity 61    
Precipitation  
Precipitation 0.00 in 0.19 in - ()
Sea Level Pressure  
Sea Level Pressure 29.89 in    
Wind  
Wind Speed 4 mph ()    
Max Wind Speed 12 mph    
Max Gust Speed -    
Visibility 12.0 miles    
Events      
Averages and records for this station are not official NWS values.
T = Trace of Precipitation, MM = Missing Value Source: Averaged Metar Reports

Daily Weather History Graph

Daily Weather History Graph

Search for Another Location

Airport or City:

Trip Planner

Search our weather history database for the weather conditions in past years. The results will help you decide how hot, cold, wet, or windy it might be!

Date:

Astronomy

Nov. 04, 2012 Rise Set
Actual Time 6:29 AM FJST 7:17 PM FJST
Civil Twilight 6:07 AM FJST 7:40 PM FJST
Nautical Twilight 5:40 AM FJST 8:07 PM FJST
Astronomical Twilight 5:13 AM FJST 8:34 PM FJST
Moon 11:35 PM FJST (11/4) 10:17 AM FJST (11/4)
Length of Visible Light 13h 33m
Length of Day
12h 47m
Waning Gibbous, 78% of the Moon is Illuminated
Nov 4
Waning Gibbous
Nov 7
Last Quarter
Nov 14
New
Nov 21
First Quarter
Nov 29
Full

Hourly Weather History & Observations

Time (FJST) Temp. Heat Index Dew Point Humidity Pressure Visibility Wind Dir Wind Speed Gust Speed Precip Events Conditions
12:00 AM 77.0 °F - 73.4 °F 89% 29.89 in 24.9 mi Calm Calm - N/A   Mostly Cloudy
1:00 AM 76 °F - 75 °F 96% 29.89 in 12 mi SSE 4.6 mph - -   Partly Cloudy
1:00 AM 77.0 °F - 75.2 °F 94% 29.89 in 24.9 mi SSE 4.6 mph - N/A   Mostly Cloudy
2:00 AM 75.2 °F - 73.4 °F 94% 29.86 in 24.9 mi SE 4.6 mph - N/A   Mostly Cloudy
3:00 AM 75.2 °F - 73.4 °F 94% 29.86 in 24.9 mi Calm Calm - N/A   Mostly Cloudy
4:00 AM 76 °F - 72 °F 85% 29.86 in 12 mi Calm Calm - -   Partly Cloudy
4:00 AM 75.2 °F - 71.6 °F 89% 29.86 in 24.9 mi Calm Calm - N/A   Mostly Cloudy
5:00 AM 75.2 °F - 71.6 °F 89% 29.86 in 24.9 mi SE 4.6 mph - N/A   Mostly Cloudy
6:00 AM 75.2 °F - 71.6 °F 89% 29.89 in 28.0 mi SSE 6.9 mph - N/A   Scattered Clouds
7:00 AM 73 °F - 71 °F 90% 29.89 in 31 mi Calm Calm - -   Partly Cloudy
7:00 AM 73.4 °F - 71.6 °F 94% 29.89 in 31.1 mi Calm Calm - N/A   Mostly Cloudy
8:00 AM 75.2 °F - 71.6 °F 89% 29.89 in 31.1 mi ESE 4.6 mph - N/A   Mostly Cloudy
9:00 AM 78.8 °F - 71.6 °F 78% 29.92 in 31.1 mi ESE 5.8 mph - N/A   Mostly Cloudy
10:00 AM 82 °F - 72 °F 64% 29.94 in 31 mi SSE 3.5 mph - -   Partly Cloudy
10:00 AM 82.4 °F 87.2 °F 71.6 °F 70% 29.92 in 31.1 mi SSE 3.5 mph - N/A   Mostly Cloudy
11:00 AM 84.2 °F 89.6 °F 71.6 °F 66% 29.92 in 31.1 mi Calm Calm - N/A   Mostly Cloudy
12:00 PM 84.2 °F 89.6 °F 71.6 °F 66% 29.92 in 31.1 mi WNW 9.2 mph - N/A   Mostly Cloudy
1:00 PM 84 °F - 75 °F 67% 29.91 in 31 mi WNW 10.4 mph - -   Partly Cloudy
1:00 PM 84.2 °F 92.3 °F 75.2 °F 74% 29.89 in 31.1 mi WNW 10.4 mph - N/A   Mostly Cloudy
2:00 PM 86.0 °F 93.4 °F 73.4 °F 66% 29.89 in 31.1 mi WNW 11.5 mph - N/A   Mostly Cloudy
3:00 PM 84.2 °F 90.9 °F 73.4 °F 70% 29.86 in 31.1 mi WNW 11.5 mph - N/A   Mostly Cloudy
4:00 PM 85 °F - 74 °F 61% 29.86 in 31 mi West 11.5 mph - -   Partly Cloudy
4:00 PM 84.2 °F 90.9 °F 73.4 °F 70% 29.86 in 31.1 mi West 11.5 mph - N/A   Mostly Cloudy
5:00 PM 82.4 °F 88.2 °F 73.4 °F 74% 29.86 in 31.1 mi West 9.2 mph - N/A   Mostly Cloudy
6:00 PM 82.4 °F 87.2 °F 71.6 °F 70% 29.86 in 31.1 mi NW 5.8 mph - N/A   Mostly Cloudy
7:00 PM 82 °F - 72 °F 65% 29.88 in 31 mi North 3.5 mph - -   Partly Cloudy
7:00 PM 82.4 °F 87.2 °F 71.6 °F 70% 29.86 in 31.1 mi North 3.5 mph - N/A   Overcast
8:00 PM 80.6 °F 84.6 °F 71.6 °F 74% 29.86 in 28.0 mi East 4.6 mph - N/A   Mostly Cloudy
9:00 PM 78.8 °F - 73.4 °F 83% 29.89 in 28.0 mi ESE 4.6 mph - N/A   Mostly Cloudy
10:00 PM 78 °F - 72 °F 78% 29.91 in 12 mi SE 6.9 mph - -   Partly Cloudy
10:00 PM 77.0 °F - 73.4 °F 89% 29.89 in 28.0 mi SE 6.9 mph - N/A   Mostly Cloudy
11:00 PM 77.0 °F - 69.8 °F 78% 29.92 in 24.9 mi ESE 5.8 mph - N/A   Mostly Cloudy